Weather History for Houlton, ME

Change the Weather History Date:

Monday, July 15, 2013

  Actual Average Record
Temperature  
Mean Temperature 74 °F 66 °F  
Max Temperature 93 °F 78 °F 94 °F (1952)
Min Temperature 54 °F 54 °F 39 °F (1997)
Degree Days  
Heating Degree Days 0 2  
Month to date heating degree days 12 35  
Since 1 June heating degree days 209 216  
Since 1 July heating degree days 12 35  
Cooling Degree Days 9 3  
Month to date cooling degree days 75 43  
Year to date cooling degree days 115 82  
Since 1 June cooling degree days 111 78  
Growing Degree Days 24 (Base 50)    
Moisture  
Dew Point 60 °F    
Average Humidity 63    
Maximum Humidity 100    
Minimum Humidity 26    
Precipitation  
Precipitation 0.00 in 0.12 in 2.28 in (1962)
Month to date precipitation 0.44 1.78  
Year to date precipitation 16.75 20.06  
Sea Level Pressure  
Sea Level Pressure 30.06 in    
Wind  
Wind Speed 3 mph (West)    
Max Wind Speed 14 mph    
Max Gust Speed 22 mph    
Visibility 10 miles    
Events      
T = Trace of Precipitation, MM = Missing Value Source: NWS Daily Summary

Daily Weather History Graph

Daily Weather History Graph

Search for Another Location

Airport:

Trip Planner

Search our weather history database for the weather conditions in past years. The results will help you decide how hot, cold, wet, or windy it might be!

Date:

Astronomy

Jul. 15, 2013 Rise Set
Actual Time 4:54 AM EDT 8:18 PM EDT
Civil Twilight 4:17 AM EDT 8:55 PM EDT
Nautical Twilight 3:29 AM EDT 9:44 PM EDT
Astronomical Twilight 2:26 AM EDT 10:46 PM EDT
Moon 12:38 PM EDT (7/15) 11:34 PM EDT (7/15)
Length of Visible Light 16h 38m
Length of Day
15h 24m
Waxing Crescent, 45% of the Moon is Illuminated
Jul 15
Waxing Crescent
Jul 15
First Quarter
Jul 22
Full
Jul 29
Last Quarter
Aug 6
New

Hourly Weather History & Observations

Time (EDT) Temp. Heat Index Dew Point Humidity Pressure Visibility Wind Dir Wind Speed Gust Speed Precip Events Conditions
12:53 AM 61.0 °F - 57.9 °F 90% 30.13 in 10.0 mi Calm Calm - N/A   Clear
1:53 AM 57.9 °F - 55.9 °F 93% 30.12 in 10.0 mi Calm Calm - N/A   Clear
2:53 AM 55.9 °F - 55.0 °F 97% 30.12 in 10.0 mi Calm Calm - N/A   Clear
3:53 AM 55.0 °F - 54.0 °F 96% 30.12 in 10.0 mi Calm Calm - N/A   Clear
4:53 AM 55.0 °F - 54.0 °F 96% 30.11 in 9.0 mi Calm Calm - N/A   Clear
5:53 AM 57.9 °F - 57.0 °F 97% 30.11 in 10.0 mi Calm Calm - N/A   Clear
6:53 AM 69.1 °F - 63.0 °F 81% 30.11 in 10.0 mi South 3.5 mph - N/A   Clear
7:53 AM 73.9 °F - 64.0 °F 71% 30.11 in 10.0 mi WSW 3.5 mph - N/A   Clear
8:53 AM 78.1 °F - 66.0 °F 66% 30.10 in 10.0 mi Variable 4.6 mph - N/A   Clear
9:53 AM 82.9 °F 85.4 °F 66.9 °F 58% 30.09 in 10.0 mi Variable 3.5 mph - N/A   Clear
10:53 AM 87.1 °F 87.8 °F 63.0 °F 44% 30.07 in 10.0 mi WNW 4.6 mph - N/A   Clear
11:53 AM 90.0 °F 88.8 °F 57.9 °F 34% 30.06 in 10.0 mi WNW 6.9 mph 18.4 mph N/A   Clear
12:53 PM 90.0 °F 88.8 °F 57.9 °F 34% 30.04 in 10.0 mi West 5.8 mph - N/A   Clear
1:53 PM 91.9 °F 91.2 °F 59.0 °F 33% 30.03 in 10.0 mi West 10.4 mph 19.6 mph N/A   Clear
2:53 PM 93.0 °F 91.1 °F 55.0 °F 28% 30.01 in 10.0 mi NW 5.8 mph - N/A   Clear
3:53 PM 93.0 °F 90.8 °F 54.0 °F 27% 30.00 in 10.0 mi WSW 8.1 mph - N/A   Clear
4:53 PM 93.0 °F 91.4 °F 55.9 °F 29% 30.00 in 10.0 mi WNW 5.8 mph - N/A   Clear
5:53 PM 91.9 °F 90.6 °F 57.0 °F 31% 29.99 in 10.0 mi Calm Calm - N/A   Clear
6:53 PM 88.0 °F 87.6 °F 60.1 °F 39% 29.99 in 10.0 mi Calm Calm - N/A   Clear
7:53 PM 79.0 °F - 66.0 °F 64% 30.00 in 10.0 mi Calm Calm - N/A   Clear
8:53 PM 71.1 °F - 63.0 °F 75% 30.03 in 10.0 mi Calm Calm - N/A   Clear
9:53 PM 68.0 °F - 63.0 °F 84% 30.04 in 10.0 mi Calm Calm - N/A   Clear
10:53 PM 66.9 °F - 63.0 °F 87% 30.06 in 10.0 mi Calm Calm - N/A   Clear
11:53 PM 66.0 °F - 63.0 °F 90% 30.07 in 10.0 mi Calm Calm - N/A   Clear